GW2253 Weather Reports


time (UTC)temp
C
wind
direction
speed
KPH
gust
KPH
rain 1hr
cm
rain 24hr
cm
rain mn
cm
humidity
%
barometer
mb
20260505191611 26 65 8.0 22.5 0.00 0.48 0.05 86 1010.8
20260505190058 26 72 6.4 14.5 0.00 0.48 0.05 86 1010.7
20260505184600 26 80 8.0 20.9 0.00 0.48 0.05 86 1010.6
20260505183058 26 63 9.7 20.9 0.00 0.48 0.05 86 1010.5
20260505181559 26 73 9.7 19.3 0.00 0.48 0.05 87 1010.4
20260505174605 26 51 6.4 17.7 0.00 0.48 0.05 88 1010.1
20260505173100 26 65 11.3 22.5 0.00 0.48 0.05 87 1010.3
20260505171557 26 75 8.0 17.7 0.00 0.48 0.05 88 1010.3
20260505170110 25 63 4.8 14.5 0.00 0.48 0.05 90 1010.4
20260505164558 25 62 6.4 16.1 0.00 0.48 0.05 90 1010.6
20260505163102 25 70 8.0 20.9 0.00 0.48 0.05 89 1010.8
20260505161616 25 67 8.0 22.5 0.00 0.48 0.05 90 1010.9
20260505153106 25 53 9.7 27.4 0.03 0.48 0.05 91 1011.3
20260505151605 25 88 12.9 27.4 0.05 0.48 0.05 91 1011.3
20260505140112 25 63 9.7 19.3 0.00 0.43 0.00 92 1011.8
20260505124558 25 80 9.7 27.4 0.15 0.46 0.43 91 1012.5
20260505123105 25 63 12.9 20.9 0.15 0.46 0.43 91 1012.5
20260505121630 25 77 9.7 24.1 0.15 0.43 0.41 93 1012.6
20260505120057 25 41 11.3 22.5 0.05 0.30 0.28 91 1012.7
20260505114557 25 80 8.0 16.1 0.05 0.30 0.28 91 1012.5
20260505113058 25 78 6.4 16.1 0.05 0.30 0.28 92 1012.5
20260505111557 25 78 9.7 25.7 0.03 0.28 0.25 92 1012.5
20260505101558 25 85 11.3 27.4 0.20 0.25 0.23 91 1012.0
20260505100101 26 71 9.7 22.5 0.00 0.05 0.03 87 1011.9
20260505094558 26 76 6.4 19.3 0.00 0.05 0.03 85 1011.7
20260505093057 26 78 9.7 22.5 0.00 0.05 0.03 86 1011.5
20260505091557 26 96 8.0 22.5 0.00 0.05 0.03 88 1011.4
20260505090107 26 85 9.7 24.1 0.00 0.05 0.03 86 1011.5
20260505084559 26 63 4.8 16.1 0.00 0.05 0.03 86 1011.3
20260505083102 26 77 4.8 22.5 0.00 0.05 0.03 85 1011.1
20260505081603 26 53 8.0 22.5 0.00 0.05 0.03 85 1010.9
20260505080057 26 76 11.3 25.7 0.00 0.05 0.03 86 1010.8
20260505074557 27 86 11.3 20.9 0.00 0.05 0.03 83 1010.4
20260505073100 27 69 9.7 22.5 0.03 0.05 0.03 83 1010.3
20260505071601 27 77 9.7 24.1 0.03 0.05 0.03 83 1010.2
20260505070100 27 74 11.3 24.1 0.03 0.05 0.03 85 1010.3
20260505064559 27 47 9.7 27.4 0.03 0.05 0.03 86 1010.3
20260505063057 27 74 6.4 20.9 0.00 0.03 0.00 85 1010.4
20260505061610 28 51 6.4 19.3 0.00 0.03 0.00 79 1010.2
20260505054600 29 74 9.7 25.7 0.00 0.03 0.00 77 1010.6
20260505053106 28 62 9.7 20.9 0.00 0.03 0.00 78 1010.6
20260505051559 28 72 12.9 29.0 0.00 0.03 0.00 78 1010.4
20260505041558 29 65 9.7 24.1 0.00 0.03 0.00 78 1010.4
20260505034559 29 63 12.9 24.1 0.00 0.03 0.00 76 1010.5
20260505033114 30 76 11.3 25.7 0.00 0.03 0.00 75 1010.7
20260505031557 29 76 14.5 24.1 0.00 0.03 0.00 76 1010.9
20260505030058 29 66 11.3 27.4 0.00 0.03 0.00 77 1011.0
20260505024609 28 76 12.9 22.5 0.00 0.03 0.00 77 1011.2
20260505023106 30 63 9.7 25.7 0.00 0.03 0.00 76 1011.3
20260505021602 29 77 9.7 22.5 0.00 0.03 0.00 77 1011.6
20260505014600 29 50 12.9 25.7 0.00 0.03 0.00 77 1011.9
20260505013105 29 76 8.0 22.5 0.00 0.03 0.00 77 1011.9
20260505011604 29 80 14.5 22.5 0.00 0.03 0.00 77 1012.1
20260505010104 29 63 12.9 22.5 0.00 0.03 0.00 75 1012.3
20260505004603 29 42 12.9 22.5 0.00 0.03 0.00 77 1012.4
20260505003104 29 35 11.3 19.3 0.00 0.03 0.00 74 1012.6
20260505001558 29 92 11.3 24.1 0.00 0.03 0.00 75 1012.7
20260504234624 29 55 11.3 24.1 0.00 0.03 0.00 74 1013.0
20260504233058 28 86 11.3 25.7 0.00 0.03 0.00 75 1013.0
20260504231605 28 58 9.7 20.9 0.00 0.03 0.00 79 1013.0
20260504230057 28 69 9.7 22.5 0.00 0.03 0.00 79 1012.9
20260504224606 28 60 9.7 22.5 0.00 0.03 0.00 79 1013.0
20260504223057 28 67 9.7 19.3 0.00 0.03 0.00 78 1013.0
20260504221604 28 78 9.7 22.5 0.00 0.03 0.00 77 1012.8
20260504220100 27 73 8.0 17.7 0.00 0.03 0.00 77 1012.7
20260504214602 27 71 9.7 25.7 0.00 0.03 0.00 79 1012.6
20260504213105 27 53 9.7 20.9 0.00 0.03 0.00 80 1012.4
20260504211606 27 56 4.8 16.1 0.00 0.03 0.00 83 1012.4
20260504210104 27 73 9.7 20.9 0.00 0.03 0.00 80 1012.3
20260504204637 27 61 8.0 22.5 0.00 0.20 0.00 82 1012.1
20260504203056 26 70 8.0 17.7 0.00 0.20 0.00 83 1012.0
20260504201559 26 74 9.7 24.1 0.00 0.20 0.00 83 1011.8
20260504194558 26 67 4.8 16.1 0.00 0.20 0.00 86 1011.6
20260504193056 26 76 6.4 22.5 0.00 0.20 0.00 85 1011.5